Maniitsoq,

1:07 AM -03 on November 20, 2017 (GMT -0300)
Maniitsoq

Weather History for BGMQ - September, 2013

Change the Weather History Date:

Thursday, September 12, 2013

  Actual Average Record
Temperature  
Mean Temperature 36 °F -  
Max Temperature 39 °F - - ()
Min Temperature 33 °F - - ()
Degree Days  
Heating Degree Days 29    
Moisture  
Dew Point 32 °F    
Average Humidity 83    
Maximum Humidity 100    
Minimum Humidity 61    
Precipitation  
Precipitation 0.00 in - - ()
Sea Level Pressure  
Sea Level Pressure 29.76 in    
Wind  
Wind Speed 9 mph ()    
Max Wind Speed 16 mph    
Max Gust Speed -    
Visibility 6.0 miles    
Events Rain , Snow    
T = Trace of Precipitation, MM = Missing Value Source: Averaged Metar Reports

Daily Weather History Graph

Daily Weather History Graph

Search for Another Location

Airport or City:

Trip Planner

Search our weather history database for the weather conditions in past years. The results will help you decide how hot, cold, wet, or windy it might be!

Date:

Astronomy

Sep. 12, 2013 Rise Set
Actual Time 6:44 AM -02 8:09 PM -02
Civil Twilight 5:51 AM -02 9:01 PM -02
Nautical Twilight 4:43 AM -02 10:08 PM -02
Astronomical Twilight 3:10 AM -02 11:38 PM -02
Moon 4:53 PM -02 (9/12) 10:12 PM -02 (9/12)
Length of Visible Light 15h 09m
Length of Day
13h 25m
Waxing Crescent, 49% of the Moon is Illuminated
Sep 12
Waxing Crescent
Sep 12
First Quarter
Sep 19
Full
Sep 27
Last Quarter
Oct 4
New

Hourly Weather History & Observations

Time (-02) Temp. Windchill Dew Point Humidity Pressure Visibility Wind Dir Wind Speed Gust Speed Precip Events Conditions
12:20 AM 35.6 °F 28.0 °F 33.8 °F 93% 29.74 in 3.7 mi ESE 10.4 mph - N/A Rain Light Rain
12:50 AM 35.6 °F 27.5 °F 33.8 °F 93% 29.74 in 5.0 mi ESE 11.5 mph - N/A Rain Light Rain
1:20 AM 35.6 °F 26.6 °F 35.6 °F 100% 29.74 in 6.2 mi ESE 13.8 mph - N/A Rain Light Rain
1:50 AM 37.4 °F 30.8 °F 35.6 °F 93% 29.74 in 6.2 mi NNE 9.2 mph - N/A Rain Light Rain
2:20 AM 37.4 °F 33.8 °F 35.6 °F 93% 29.74 in 6.2 mi NNW 4.6 mph - N/A   Drizzle
2:50 AM 37.4 °F - 35.6 °F 93% 29.74 in 6.2 mi Variable 2.3 mph - N/A   Light Drizzle
3:20 AM 37.4 °F 34.9 °F 35.6 °F 93% 29.74 in 6.2 mi Variable 3.5 mph - N/A   Drizzle
3:50 AM 39.2 °F 33.0 °F 35.6 °F 87% 29.74 in 6.2 mi SW 9.2 mph - N/A   Overcast
4:20 AM 37.4 °F 30.3 °F 33.8 °F 87% 29.74 in 6.2 mi WSW 10.4 mph - N/A   Overcast
4:50 AM 37.4 °F 30.3 °F 32.0 °F 81% 29.74 in 6.2 mi SW 10.4 mph - N/A Rain Light Rain
5:20 AM 37.4 °F 30.3 °F 32.0 °F 81% 29.74 in 6.2 mi SW 10.4 mph - N/A   Overcast
5:50 AM 37.4 °F 30.8 °F 32.0 °F 81% 29.74 in 6.2 mi WSW 9.2 mph - N/A   Overcast
6:20 AM 37.4 °F 30.3 °F 32.0 °F 81% 29.74 in 6.2 mi SW 10.4 mph - N/A   Overcast
6:50 AM 37.4 °F 30.3 °F 32.0 °F 81% 29.74 in 6.2 mi SW 10.4 mph - N/A   Mostly Cloudy
7:50 AM 37.4 °F 31.4 °F 32.0 °F 81% 29.77 in 6.2 mi WSW 8.1 mph - N/A   Mostly Cloudy
8:50 AM 37.4 °F 31.4 °F 32.0 °F 81% 29.77 in 6.2 mi SW 8.1 mph - N/A   Mostly Cloudy
9:50 AM 37.4 °F 30.3 °F 32.0 °F 81% 29.77 in 6.2 mi SSW 10.4 mph - N/A   Mostly Cloudy
10:50 AM 37.4 °F 33.8 °F 33.8 °F 87% 29.77 in 6.2 mi North 4.6 mph - N/A   Mostly Cloudy
11:50 AM 37.4 °F 30.3 °F 28.4 °F 70% 29.77 in 6.2 mi WSW 10.4 mph - N/A   Mostly Cloudy
12:50 PM 37.4 °F 30.8 °F 28.4 °F 70% 29.77 in 6.2 mi WSW 9.2 mph - N/A   Mostly Cloudy
1:50 PM 37.4 °F 32.1 °F 28.4 °F 70% 29.77 in 6.2 mi WSW 6.9 mph - N/A   Mostly Cloudy
2:50 PM 39.2 °F - 26.6 °F 61% 29.77 in 6.2 mi SSE 2.3 mph - N/A   Mostly Cloudy
3:20 PM 39.2 °F 35.9 °F 28.4 °F 65% 29.77 in 6.2 mi East 4.6 mph - N/A   Overcast
3:50 PM 39.2 °F 33.6 °F 28.4 °F 65% 29.77 in 6.2 mi ESE 8.1 mph - N/A   Mostly Cloudy
4:20 PM 39.2 °F 32.0 °F 28.4 °F 65% 29.77 in 6.2 mi SSE 11.5 mph - N/A   Mostly Cloudy
4:50 PM 39.2 °F 31.6 °F 28.4 °F 65% 29.77 in 6.2 mi SSE 12.7 mph - N/A   Mostly Cloudy
5:20 PM 39.2 °F 31.6 °F 30.2 °F 70% 29.77 in 6.2 mi South 12.7 mph - N/A   Mostly Cloudy
5:50 PM 37.4 °F 28.2 °F 30.2 °F 75% 29.77 in 6.2 mi South 16.1 mph - N/A   Mostly Cloudy
6:20 PM 35.6 °F 25.9 °F 32.0 °F 87% 29.77 in 6.2 mi SSW 16.1 mph - N/A   Mostly Cloudy
6:50 PM 35.6 °F 26.6 °F 33.8 °F 93% 29.80 in 6.2 mi SSW 13.8 mph - N/A Rain Light Rain Showers
7:20 PM 35.6 °F 27.5 °F 33.8 °F 93% 29.80 in 6.2 mi SSW 11.5 mph - N/A Snow Light Snow Showers
7:50 PM 35.6 °F 26.6 °F 33.8 °F 93% 29.80 in 4.3 mi SSW 13.8 mph - N/A Snow Light Snow Showers
8:20 PM 35.6 °F 28.0 °F 33.8 °F 93% 29.80 in 6.2 mi SSE 10.4 mph - N/A Rain Light Rain Showers
8:50 PM 35.6 °F 30.7 °F 32.0 °F 87% 29.77 in 6.2 mi SSE 5.8 mph - N/A   Mostly Cloudy
9:20 PM 35.6 °F 28.0 °F 30.2 °F 81% 29.77 in 6.2 mi SSE 10.4 mph - N/A   Mostly Cloudy
9:50 PM 35.6 °F 28.0 °F 32.0 °F 87% 29.77 in 6.2 mi SSE 10.4 mph - N/A   Mostly Cloudy
10:20 PM 33.8 °F 23.5 °F 32.0 °F 93% 29.80 in 2.8 mi SW 16.1 mph - N/A Snow Light Snow
10:50 PM 33.8 °F 29.6 °F 32.0 °F 93% 29.77 in 6.2 mi SW 4.6 mph - N/A   Mostly Cloudy
11:20 PM 35.6 °F 28.6 °F 32.0 °F 87% 29.77 in 6.2 mi SSW 9.2 mph - N/A   Mostly Cloudy
11:50 PM 35.6 °F 26.2 °F 32.0 °F 87% 29.77 in 6.2 mi SSW 15.0 mph - N/A Rain Light Rain